Location: Amanico Ergina Village
(37.7824°N, 122.4366°W)
Time: 07:07:31
(UTC+00:00)

Nadezhda 4 Rocket - Pass Details

Date: 29 October 2020
Orbit: 951 x 991 km, 82.9° (Epoch: 02 December)

Event Time Altitude Azimuth Distance (km) Brightness Sun altitude
Rises 12:01:24 0° 179° (S) 3,607 6.9 -30.4°
Reaches altitude 10° 12:03:53 10° 178° (S) 2,666 6.2 -29.9°
Maximum altitude 12:09:56 75° 94° (E) 989 4.0 -28.7°
Drops below altitude 10° 12:16:04 10° 10° (N) 2,693 6.4 -27.5°
Sets 12:18:35 0° 9° (N) 3,648 7.2 -27.0°
